Guantanamo Bay NAS, Cuba

8:53 AM CST on December 17, 2017 (GMT -0500)
Guantanamo Bay Naval Air Station

Weather History for MUGM - December, 2017

Change the Weather History Date:

Thursday, December 7, 2017

  Actual Average Record
Temperature  
Mean Temperature 79 °F -  
Max Temperature 86 °F 83 °F 90 °F (2016)
Min Temperature 72 °F 68 °F 62 °F (2010)
Cooling Degree Days 14    
Growing Degree Days 29 (Base 50)    
Moisture  
Dew Point 76 °F    
Average Humidity 92    
Maximum Humidity 100    
Minimum Humidity 79    
Precipitation  
Precipitation 0.00 in - - ()
Sea Level Pressure  
Sea Level Pressure 29.96 in    
Wind  
Wind Speed 10 mph ()    
Max Wind Speed 127 mph    
Max Gust Speed -    
Visibility 6.2 miles    
Events      
Averages and records for this station are not official NWS values.
T = Trace of Precipitation, MM = Missing Value Source: Averaged Metar Reports

Daily Weather History Graph

Daily Weather History Graph

Search for Another Location

Airport or City:

Trip Planner

Search our weather history database for the weather conditions in past years. The results will help you decide how hot, cold, wet, or windy it might be!

Date:

Astronomy

Dec. 07, 2017 Rise Set
Actual Time 6:23 AM CST 5:21 PM CST
Civil Twilight 5:59 AM CST 5:45 PM CST
Nautical Twilight 5:32 AM CST 6:12 PM CST
Astronomical Twilight 5:05 AM CST 6:39 PM CST
Moon 9:51 PM CST (12/7) 10:12 AM CST (12/7)
Length of Visible Light 11h 46m
Length of Day
10h 58m
Waning Gibbous, 78% of the Moon is Illuminated
Dec 7
Waning Gibbous
Dec 10
Last Quarter
Dec 18
New
Dec 26
First Quarter
Jan 1
Full

Hourly Weather History & Observations

Time (CST) Temp. Heat Index Dew Point Humidity Pressure Visibility Wind Dir Wind Speed Gust Speed Precip Events Conditions
12:56 AM 73.9 °F - 73.9 °F 100% 29.99 in 6.2 mi North 6.9 mph - N/A   Scattered Clouds
1:56 AM 73.0 °F - 73.0 °F 100% 29.96 in 6.2 mi NNE 5.8 mph - N/A   Partly Cloudy
2:56 AM 73.0 °F - 73.0 °F 100% 29.96 in 6.2 mi North 6.9 mph - N/A   Partly Cloudy
3:56 AM 72.0 °F - 72.0 °F 100% 29.96 in 6.2 mi North 6.9 mph - N/A   Partly Cloudy
4:56 AM 72.0 °F - 72.0 °F 100% 29.97 in 6.2 mi NNE 8.1 mph - N/A   Partly Cloudy
5:56 AM 73.0 °F - 73.0 °F 100% 29.97 in 6.2 mi NNW 8.1 mph - N/A   Scattered Clouds
6:56 AM 72.0 °F - 72.0 °F 100% 29.98 in 6.2 mi North 6.9 mph - N/A   Partly Cloudy
7:56 AM 73.9 °F - 73.9 °F 100% 29.99 in 6.2 mi North 8.1 mph - N/A   Partly Cloudy
8:56 AM 78.1 °F - 75.9 °F 93% 30.01 in 6.2 mi North 6.9 mph - N/A   Scattered Clouds
9:56 AM 82.9 °F 90.8 °F 75.9 °F 79% 30.01 in 6.2 mi North 5.8 mph - N/A   Partly Cloudy
10:56 AM 84.9 °F 96.6 °F 78.1 °F 80% 29.99 in 6.2 mi ESE 10.4 mph - N/A   Partly Cloudy
11:56 AM 86.0 °F 99.3 °F 79.0 °F 79% 29.95 in 6.2 mi ESE 12.7 mph - N/A   Partly Cloudy
12:56 PM 86.0 °F 99.3 °F 79.0 °F 79% 29.93 in 6.2 mi ESE 11.5 mph - N/A   Partly Cloudy
1:56 PM 86.0 °F 99.3 °F 79.0 °F 79% 29.91 in 6.2 mi SE 13.8 mph - N/A   Scattered Clouds
2:56 PM 84.9 °F 97.5 °F 79.0 °F 82% 29.90 in 6.2 mi SE 13.8 mph - N/A   Scattered Clouds
3:56 PM 84.9 °F 96.6 °F 78.1 °F 80% 29.91 in 6.2 mi SE 9.2 mph - N/A   Scattered Clouds
4:56 PM 82.0 °F 91.0 °F 78.1 °F 88% 29.91 in 6.2 mi ESE 126.6 mph - N/A   Mostly Cloudy
5:56 PM 82.0 °F 91.0 °F 78.1 °F 88% 29.92 in 6.2 mi ESE 8.1 mph - N/A   Mostly Cloudy
6:56 PM 81.0 °F 88.6 °F 78.1 °F 91% 29.94 in 6.2 mi ESE 5.8 mph - N/A   Scattered Clouds
7:56 PM 81.0 °F 88.6 °F 78.1 °F 91% 29.96 in 6.2 mi ENE 3.5 mph - N/A   Scattered Clouds
8:56 PM 79.0 °F - 78.1 °F 97% 29.97 in 6.2 mi North 3.5 mph - N/A   Scattered Clouds
9:56 PM 77.0 °F - 77.0 °F 100% 29.98 in 6.2 mi North 4.6 mph - N/A   Scattered Clouds
10:56 PM 75.9 °F - 75.9 °F 100% 29.97 in 6.2 mi NNW 5.8 mph - N/A   Scattered Clouds
11:56 PM 75.9 °F - 75.9 °F 100% 29.96 in 6.2 mi North 6.9 mph - N/A   Scattered Clouds